Date String (YYYY-MM-DD hh:mm:ss) UTC,Instrument flags,Ambient pressure (hPa),Sample flow (lpm),Bypass flow (lpm),Sample temperature (°C),Ambient temperature (°C),ASC tube jacket temperature (°C),LED temperature (°C),Box temperature (°C),Sample RH (%),Span deviation,Mass concentration (μg/m³),Mass concentration (μg/m³),Mass concentration (μg/m³)
DateTimeUTC,F1_M11,P_M11,Q1_M11,Q2_M11,T1_M11,T2_M11,T3_M11,T4_M11,T5_M11,U1_M11,ZSPAN_M11,X0_M11,X2_M11,X1_M11
2022-11-18 20:00:00,,0829.6,5.01,0.00,24.1,22.9,00.0,32.9,26.0,07.4,0000.8,0012.41,0009.16,0008.67
2022-11-18 20:01:00,,0829.5,4.99,0.00,24.1,22.9,00.0,32.9,26.0,07.5,0001.3,0012.45,0009.15,0008.66
2022-11-18 20:02:00,,0829.5,5.00,0.00,24.1,22.9,00.0,32.9,26.0,07.4,0001.6,0012.48,0009.15,0008.66
2022-11-18 20:03:00,,0829.4,5.01,0.00,24.1,22.9,00.0,32.9,26.0,07.4,0002.0,0012.19,0009.17,0008.67
2022-11-18 20:04:00,,0829.3,5.00,0.00,24.1,22.9,00.0,32.9,26.0,07.4,0001.8,0012.36,0009.19,0008.69
2022-11-18 20:05:00,,0829.4,5.00,0.00,24.1,22.9,00.0,32.9,26.0,07.4,0000.9,0012.57,0009.23,0008.71
2022-11-18 20:06:00,,0829.4,5.00,0.00,24.1,22.9,00.0,33.0,26.0,07.4,0000.9,0012.79,0009.25,0008.74
2022-11-18 20:07:00,,0829.5,4.99,0.00,24.1,22.9,00.0,33.0,26.0,07.4,0000.6,0013.34,0009.27,0008.77
2022-11-18 20:08:00,,0829.4,5.00,0.00,24.1,22.9,00.0,33.0,26.0,07.4,0001.3,0013.56,0009.29,0008.79
2022-11-18 20:09:00,,0829.4,5.01,0.00,24.1,22.9,00.0,33.0,26.0,07.4,0001.7,0013.93,0009.32,0008.82
2022-11-18 20:10:00,,0829.4,5.01,0.00,24.2,22.9,00.0,33.0,26.0,07.4,0001.6,0013.84,0009.35,0008.85
2022-11-18 20:11:00,,0829.4,5.01,0.00,24.2,23.0,00.0,33.0,26.1,07.4,0000.0,0013.85,0009.39,0008.88
2022-11-18 20:12:00,,0829.3,4.98,0.00,24.2,23.0,00.0,33.0,26.1,07.4,0000.0,0013.83,0009.40,0008.91
2022-11-18 20:13:00,,0829.2,5.00,0.00,24.2,23.0,00.0,33.0,26.1,07.4,0000.0,0013.80,0009.42,0008.95
2022-11-18 20:14:00,,0829.3,5.00,0.00,24.2,23.0,00.0,33.0,26.1,07.4,0000.0,0013.83,0009.44,0008.97
2022-11-18 20:15:00,,0829.2,5.02,0.00,24.2,23.0,00.0,33.0,26.1,07.4,0000.0,0013.57,0009.46,0008.98
2022-11-18 20:16:00,,0829.2,5.01,0.00,24.2,23.0,00.0,33.0,26.1,07.5,0000.0,0013.55,0009.48,0008.99
2022-11-18 20:17:00,,0829.3,5.01,0.00,24.2,23.0,00.0,33.0,26.1,07.4,0000.0,0013.51,0009.49,0008.99
2022-11-18 20:18:00,,0829.3,5.00,0.00,24.2,23.0,00.0,33.0,26.1,07.4,0000.0,0013.03,0009.53,0009.00
2022-11-18 20:19:00,,0829.3,5.00,0.00,24.2,23.0,00.0,33.0,26.1,07.4,0000.0,0013.01,0009.57,0009.01
2022-11-18 20:20:00,,0829.3,4.99,0.00,24.2,23.0,00.0,33.1,26.1,07.3,0000.0,0012.98,0009.60,0009.04
2022-11-18 20:21:00,,0829.2,5.00,0.00,24.2,23.0,00.0,33.1,26.1,07.3,0000.0,0013.06,0009.62,0009.07
2022-11-18 20:22:00,,0829.2,5.01,0.00,24.2,23.0,00.0,33.1,26.1,07.3,0000.0,0013.06,0009.63,0009.09
2022-11-18 20:23:00,,0829.1,5.01,0.00,24.2,23.0,00.0,33.1,26.1,07.4,0000.8,0013.23,0009.70,0009.12
2022-11-18 20:24:00,,0829.1,4.99,0.00,24.3,23.0,00.0,33.1,26.1,07.4,0001.7,0013.35,0009.75,0009.15
2022-11-18 20:25:00,,0829.0,5.01,0.00,24.3,23.0,00.0,33.1,26.1,07.4,0000.1,0013.41,0009.77,0009.18
2022-11-18 20:26:00,,0829.1,5.01,0.00,24.3,23.0,00.0,33.1,26.1,07.4,0000.0,0013.75,0009.77,0009.20
2022-11-18 20:27:00,,0829.1,5.00,0.00,24.3,23.0,00.0,33.1,26.1,07.4,0001.1,0013.72,0009.74,0009.21
2022-11-18 20:28:00,,0829.1,4.99,0.00,24.3,23.0,00.0,33.1,26.2,07.5,0004.1,0013.64,0009.72,0009.21
2022-11-18 20:29:00,,0829.1,5.00,0.00,24.3,23.1,00.0,33.1,26.2,07.4,0002.0,0013.66,0009.72,0009.23
2022-11-18 20:30:00,,0829.2,5.00,0.00,24.3,23.1,00.0,33.1,26.2,07.4,0003.8,0013.63,0009.69,0009.22
2022-11-18 20:31:00,,0829.2,5.01,0.00,24.3,23.1,00.0,33.1,26.2,07.4,0003.2,0013.47,0009.68,0009.20
2022-11-18 20:32:00,,0829.2,5.01,0.00,24.3,23.1,00.0,33.1,26.2,07.4,0003.3,0013.24,0009.63,0009.16
2022-11-18 20:33:00,,0829.2,5.00,0.00,24.3,23.1,00.0,33.1,26.2,07.4,0003.6,0013.26,0009.62,0009.12
2022-11-18 20:34:00,,0829.1,4.99,0.00,24.3,23.1,00.0,33.2,26.2,07.4,0003.5,0013.17,0009.57,0009.09
2022-11-18 20:35:00,,0829.1,5.00,0.00,24.3,23.1,00.0,33.2,26.2,07.4,0003.0,0012.96,0009.43,0008.98
2022-11-18 20:36:00,,0829.1,5.00,0.00,24.3,23.1,00.0,33.2,26.2,07.4,0003.0,0012.82,0009.33,0008.86
2022-11-18 20:37:00,,0829.0,5.00,0.00,24.3,23.1,00.0,33.2,26.2,07.4,0002.0,0012.36,0009.22,0008.76
2022-11-18 20:38:00,,0829.1,5.01,0.00,24.4,23.1,00.0,33.2,26.2,07.4,0001.4,0012.01,0009.11,0008.65
2022-11-18 20:39:00,,0829.0,5.01,0.00,24.4,23.1,00.0,33.2,26.2,07.4,0000.8,0011.84,0009.00,0008.55
2022-11-18 20:40:00,,0829.0,5.00,0.00,24.4,23.1,00.0,33.2,26.2,07.4,0000.3,0011.59,0008.91,0008.46
2022-11-18 20:41:00,,0829.0,4.98,0.00,24.4,23.2,00.0,33.2,26.2,07.4,0000.1,0011.42,0008.83,0008.38
2022-11-18 20:42:00,,0829.0,5.01,0.00,24.4,23.2,00.0,33.2,26.2,07.4,0000.0,0011.26,0008.74,0008.31
2022-11-18 20:43:00,,0828.9,5.01,0.00,24.4,23.2,00.0,33.2,26.2,07.4,0000.0,0011.21,0008.68,0008.24
2022-11-18 20:44:00,,0828.9,4.98,0.00,24.4,23.2,00.0,33.2,26.3,07.4,0000.0,0011.15,0008.61,0008.19
2022-11-18 20:45:00,,0828.9,5.01,0.00,24.4,23.2,00.0,33.2,26.3,07.3,0000.0,0011.02,0008.54,0008.13
2022-11-18 20:46:00,,0828.9,5.00,0.00,24.4,23.2,00.0,33.2,26.3,07.4,0000.0,0011.08,0008.57,0008.16
2022-11-18 20:47:00,,0828.9,4.98,0.00,24.4,23.2,00.0,33.2,26.3,07.3,0000.5,0011.20,0008.59,0008.17
2022-11-18 20:48:00,,0828.9,5.01,0.00,24.4,23.2,00.0,33.3,26.3,07.3,0001.5,0011.30,0008.62,0008.18
2022-11-18 20:49:00,,0828.9,5.01,0.00,24.4,23.2,00.0,33.3,26.3,07.4,0000.0,0011.42,0008.67,0008.22
2022-11-18 20:50:00,,0828.9,5.00,0.00,24.5,23.2,00.0,33.3,26.3,07.4,0001.7,0011.55,0008.73,0008.25
2022-11-18 20:51:00,,0828.9,5.00,0.00,24.5,23.2,00.0,33.3,26.3,07.4,0003.0,0011.64,0008.75,0008.26
2022-11-18 20:52:00,,0828.9,4.99,0.00,24.5,23.2,00.0,33.3,26.3,07.3,0003.2,0011.65,0008.75,0008.27
2022-11-18 20:53:00,,0828.9,5.01,0.00,24.5,23.2,00.0,33.3,26.4,07.3,0003.9,0011.71,0008.78,0008.29
2022-11-18 20:54:00,,0828.8,5.00,0.00,24.5,23.2,00.0,33.3,26.3,07.3,0003.3,0011.65,0008.78,0008.30
2022-11-18 20:55:00,,0829.1,5.00,0.00,24.5,23.2,00.0,33.3,26.3,07.3,0001.5,0011.66,0008.80,0008.30
2022-11-18 20:56:00,,0829.3,4.99,0.00,24.5,23.2,00.0,33.3,26.3,07.3,0002.1,0011.65,0008.81,0008.31
2022-11-18 20:57:00,,0829.3,5.00,0.00,24.5,23.2,00.0,33.3,26.3,07.3,0001.9,0011.63,0008.81,0008.31
2022-11-18 20:58:00,,0829.3,5.00,0.00,24.5,23.3,00.0,33.3,26.4,07.3,0000.2,0011.57,0008.80,0008.32
2022-11-18 20:59:00,,0829.3,5.00,0.00,24.5,23.3,00.0,33.3,26.4,07.3,0000.0,0011.51,0008.81,0008.34
